When you browse on this site, cookies collect data to enhance your experience and personalize the content and advertising you see.
Visit our Privacy Policy to learn more. By continuing to use the site, you agree to this use of cookies and data.
  • In Hungary
  • List of Countries
  • For 7 days
  • Water Temperature
  • Satellite Maps
  • Weather Map
  • News
  • Weather Widgets
  • user-avatar
    Login

    Hourly Weather Lusaka

    Today, 23 January, Wednesday

    Time Temperature Precipitation Wind Pressure Humidity
    00:00 +18°C° 0 mm 0 mps 656 mmHg 81%
    01:00 +18°C° 0 mm 0 mps 655 mmHg 81%
    02:00 +18°C° 0 mm 0 mps 656 mmHg 86%
    03:00 +18°C° 0.1 mm 0 mps 656 mmHg 87%
    04:00 +18°C° 0.1 mm 0 mps 656 mmHg 88%
    05:00 +18°C° 0.1 mm 0 mps 656 mmHg 88%
    06:00 +19°C° 0 mm 0 mps 656 mmHg 86%
    07:00 +20°C° 0 mm 0 mps 656 mmHg 83%
    08:00 +24°C° 0 mm 1 mps 657 mmHg 79%
    09:00 +25°C° 0.4 mm 1 mps 657 mmHg 75%
    10:00 +26°C° 0.4 mm 1 mps 657 mmHg 71%
    11:00 +27°C° 0.4 mm 2 mps 657 mmHg 67%
    12:00 +28°C° 0.8 mm 2 mps 657 mmHg 66%
    13:00 +28°C° 0.8 mm 2 mps 656 mmHg 64%
    14:00 +28°C° 0 mm 3 mps 656 mmHg 67%
    15:00 +28°C° 0.9 mm 2 mps 656 mmHg 70%
    16:00 +27°C° 0.9 mm 2 mps 655 mmHg 74%
    17:00 +26°C° 0.9 mm 2 mps 655 mmHg 77%
    18:00 +25°C° 0.3 mm 1 mps 655 mmHg 81%
    19:00 +23°C° 0.3 mm 1 mps 655 mmHg 84%
    20:00 +19°C° 0.3 mm 0 mps 655 mmHg 88%
    21:00 +19°C° 0 mm 0 mps 655 mmHg 89%
    22:00 +19°C° 0 mm 0 mps 655 mmHg 90%
    23:00 +18°C° 0 mm 0 mps 655 mmHg 91%

    Tomorrow, 24 January, Thursday

    Time Temperature Precipitation Wind Pressure Humidity
    00:00 +18°C° 0 mm 0 mps 655 mmHg 91%
    01:00 +18°C° 0 mm 0 mps 655 mmHg 92%
    02:00 +18°C° 0 mm 0 mps 655 mmHg 92%
    03:00 +18°C° 0 mm 0 mps 655 mmHg 93%
    04:00 +17°C° 0 mm 0 mps 655 mmHg 93%
    05:00 +19°C° 0 mm 1 mps 655 mmHg 94%
    06:00 +20°C° 0 mm 1 mps 655 mmHg 91%
    07:00 +21°C° 0 mm 1 mps 656 mmHg 89%
    08:00 +23°C° 0 mm 1 mps 657 mmHg 86%
    09:00 +24°C° 0 mm 1 mps 657 mmHg 79%
    10:00 +26°C° 0 mm 1 mps 657 mmHg 71%
    11:00 +28°C° 0 mm 1 mps 658 mmHg 63%
    12:00 +28°C° 0 mm 2 mps 657 mmHg 60%
    13:00 +29°C° 0 mm 2 mps 657 mmHg 57%
    14:00 +30°C° 0 mm 2 mps 657 mmHg 54%
    15:00 +29°C° 0 mm 2 mps 656 mmHg 56%
    16:00 +29°C° 0 mm 2 mps 656 mmHg 58%
    17:00 +29°C° 0 mm 2 mps 655 mmHg 60%
    18:00 +27°C° 0 mm 1 mps 655 mmHg 64%
    19:00 +25°C° 0 mm 1 mps 655 mmHg 68%
    20:00 +21°C° 0 mm 0 mps 655 mmHg 71%
    21:00 +20°C° 0 mm 0 mps 655 mmHg 72%
    22:00 +22°C° 0 mm 1 mps 655 mmHg 73%
    23:00 +22°C° 0 mm 1 mps 656 mmHg 73%

    Day after tomorrow, 25 January, Friday

    Time Temperature Precipitation Wind Pressure Humidity
    00:00 +21°C° 0 mm 1 mps 655 mmHg 78%
    01:00 +21°C° 0 mm 1 mps 655 mmHg 82%
    02:00 +20°C° 0 mm 1 mps 655 mmHg 87%
    03:00 +20°C° 0.1 mm 1 mps 655 mmHg 90%
    04:00 +20°C° 0.1 mm 1 mps 655 mmHg 93%
    05:00 +20°C° 0.1 mm 1 mps 655 mmHg 95%
    06:00 +21°C° 0 mm 1 mps 656 mmHg 92%
    07:00 +22°C° 0 mm 1 mps 657 mmHg 88%
    08:00 +23°C° 0 mm 1 mps 658 mmHg 84%
    09:00 +26°C° 0.2 mm 1 mps 658 mmHg 76%
    10:00 +28°C° 0.2 mm 1 mps 659 mmHg 69%
    11:00 +30°C° 0.2 mm 1 mps 659 mmHg 61%
    12:00 +30°C° 0.1 mm 1 mps 659 mmHg 57%
    13:00 +29°C° 0.1 mm 0 mps 658 mmHg 53%
    14:00 +29°C° 0.1 mm 0 mps 657 mmHg 48%
    15:00 +30°C° 0 mm 1 mps 657 mmHg 51%
    16:00 +29°C° 0 mm 1 mps 656 mmHg 55%
    17:00 +28°C° 0 mm 1 mps 656 mmHg 58%
    18:00 +27°C° 0 mm 1 mps 656 mmHg 63%
    19:00 +25°C° 0 mm 1 mps 656 mmHg 67%
    20:00 +24°C° 0 mm 2 mps 656 mmHg 72%
    21:00 +23°C° 0 mm 2 mps 657 mmHg 75%
    22:00 +21°C° 0 mm 2 mps 657 mmHg 79%
    23:00 +20°C° 0 mm 2 mps 657 mmHg 83%

    26 January, Saturday

    Time Temperature Precipitation Wind Pressure Humidity
    00:00 +20°C° 0 mm 2 mps 657 mmHg 84%
    01:00 +20°C° 0 mm 2 mps 656 mmHg 85%
    02:00 +20°C° 0 mm 1 mps 656 mmHg 86%
    03:00 +20°C° 0 mm 1 mps 656 mmHg 87%
    04:00 +20°C° 0 mm 1 mps 656 mmHg 88%
    05:00 +19°C° 0 mm 1 mps 656 mmHg 89%
    06:00 +20°C° 0 mm 2 mps 657 mmHg 84%
    07:00 +21°C° 0 mm 2 mps 657 mmHg 80%
    08:00 +22°C° 0 mm 3 mps 658 mmHg 76%
    09:00 +25°C° 0 mm 3 mps 658 mmHg 70%
    10:00 +26°C° 0 mm 3 mps 659 mmHg 64%
    11:00 +28°C° 0 mm 3 mps 659 mmHg 58%
    12:00 +28°C° 1 mm 3 mps 658 mmHg 60%
    13:00 +28°C° 1 mm 3 mps 658 mmHg 61%
    14:00 +28°C° 1 mm 2 mps 657 mmHg 63%
    15:00 +28°C° 0.6 mm 2 mps 656 mmHg 64%
    16:00 +27°C° 0.6 mm 2 mps 656 mmHg 65%
    17:00 +27°C° 0.6 mm 2 mps 656 mmHg 67%
    18:00 +25°C° 0 mm 2 mps 656 mmHg 72%
    19:00 +24°C° 0 mm 2 mps 656 mmHg 77%
    20:00 +22°C° 0 mm 1 mps 656 mmHg 82%
    21:00 +21°C° 0 mm 2 mps 656 mmHg 85%
    22:00 +20°C° 0 mm 2 mps 657 mmHg 87%
    23:00 +20°C° 0 mm 2 mps 657 mmHg 89%

    27 January, Sunday

    Time Temperature Precipitation Wind Pressure Humidity
    00:00 +20°C° 0 mm 2 mps 656 mmHg 89%
    01:00 +19°C° 0 mm 2 mps 656 mmHg 90%
    02:00 +19°C° 0 mm 2 mps 656 mmHg 90%
    03:00 +18°C° 0 mm 2 mps 656 mmHg 90%
    04:00 +18°C° 0 mm 2 mps 656 mmHg 91%
    05:00 +18°C° 0 mm 2 mps 656 mmHg 91%
    06:00 +19°C° 0 mm 2 mps 657 mmHg 87%
    07:00 +20°C° 0 mm 3 mps 657 mmHg 83%
    08:00 +21°C° 0 mm 3 mps 658 mmHg 79%
    09:00 +23°C° 0 mm 4 mps 658 mmHg 73%
    10:00 +25°C° 0 mm 4 mps 659 mmHg 68%
    11:00 +27°C° 0 mm 4 mps 659 mmHg 62%
    12:00 +28°C° 0 mm 4 mps 658 mmHg 60%
    13:00 +28°C° 0 mm 3 mps 657 mmHg 58%
    14:00 +29°C° 0 mm 3 mps 657 mmHg 55%
    15:00 +29°C° 0 mm 3 mps 656 mmHg 58%
    16:00 +28°C° 0 mm 3 mps 656 mmHg 60%
    17:00 +28°C° 0 mm 2 mps 655 mmHg 62%
    18:00 +26°C° 0 mm 2 mps 656 mmHg 67%
    19:00 +25°C° 0 mm 2 mps 656 mmHg 73%
    20:00 +23°C° 0 mm 2 mps 656 mmHg 78%
    21:00 +21°C° 0 mm 2 mps 656 mmHg 80%
    22:00 +21°C° 0 mm 2 mps 656 mmHg 82%
    23:00 +20°C° 0 mm 2 mps 657 mmHg 84%

    28 January, Monday

    Time Temperature Precipitation Wind Pressure Humidity
    00:00 +20°C° 0 mm 2 mps 656 mmHg 86%
    01:00 +19°C° 0 mm 2 mps 656 mmHg 88%
    02:00 +19°C° 0 mm 2 mps 655 mmHg 89%
    03:00 +19°C° 0 mm 2 mps 656 mmHg 89%
    04:00 +19°C° 0 mm 2 mps 656 mmHg 88%
    05:00 +19°C° 0 mm 2 mps 656 mmHg 87%
    06:00 +20°C° 0 mm 3 mps 657 mmHg 86%
    07:00 +20°C° 0 mm 3 mps 657 mmHg 85%
    08:00 +21°C° 0 mm 4 mps 658 mmHg 84%
    09:00 +22°C° 0.1 mm 3 mps 658 mmHg 81%
    10:00 +22°C° 0.1 mm 3 mps 658 mmHg 78%
    11:00 +24°C° 0.1 mm 3 mps 658 mmHg 76%
    12:00 +25°C° 0 mm 3 mps 658 mmHg 73%
    13:00 +25°C° 0 mm 3 mps 657 mmHg 71%
    14:00 +26°C° 0 mm 3 mps 656 mmHg 68%
    15:00 +26°C° 0 mm 3 mps 656 mmHg 70%
    16:00 +25°C° 0 mm 2 mps 656 mmHg 72%
    17:00 +25°C° 0 mm 2 mps 655 mmHg 74%
    18:00 +24°C° 0 mm 2 mps 655 mmHg 79%
    19:00 +23°C° 0 mm 2 mps 656 mmHg 83%
    20:00 +21°C° 0 mm 1 mps 656 mmHg 88%
    21:00 +21°C° 0 mm 1 mps 656 mmHg 90%
    22:00 +21°C° 0 mm 1 mps 656 mmHg 92%
    23:00 +20°C° 0 mm 1 mps 657 mmHg 93%
    Show more